Regional Weather Roundup
Issued by NWS Huntsville, AL

Home | Current Version | Previous Version | Text Only | Print | Product List | Glossary On
Versions: 1 2 3 4 5 6 7 8 9 10 11 12 13 14 15 16 17 18 19 20 21 22 23 24 25 26 27
000
ASUS44 KHUN 110010
RWRHUN

WEATHER ROUNDUP FOR THE TENNESSEE VALLEY
NATIONAL WEATHER SERVICE HUNTSVILLE AL
600 PM CST SUN DEC 10 2017

ALZ001>004-110100-
NORTHWEST ALABAMA

CITY           SKY/WX    TMP DP  RH WIND       PRES   REMARKS
COURTLAND HCN    N/A     43 N/A N/A SW7         N/A
RUSSELLVILLE     N/A     43 N/A N/A MISG        N/A
SHOALS AIRPORT CLEAR     41  23  48 SW7       30.20R
6HR MIN TEMP:  41; 6HR MAX TEMP:  51;

SHOALS TVA RES   N/A     45 N/A N/A MISG        N/A
$$

ALZ005>007-016-110100-
NORTH CENTRAL ALABAMA

CITY           SKY/WX    TMP DP  RH WIND       PRES   REMARKS
CULLMAN AG STN   N/A     41 N/A N/A SW3         N/A
DECATUR AP     CLEAR     45  23  42 SW9       30.20S
6HR MIN TEMP:  42; 6HR MAX TEMP:  50;

HUNTSVILLE AP  CLEAR     41  27  57 SW7       30.19S
6HR MIN TEMP:  41; 6HR MAX TEMP:  50;

MERIDIANVILLE  CLEAR     43  21  42 S7        30.18S
REDSTONE ARSN  CLEAR     40  24  51 SW8       30.18S WCI  35
VINEMONT AP    FAIR      40  22  48 S7        30.22S
$$

ALZ008>010-110100-
NORTHEAST ALABAMA

CITY           SKY/WX    TMP DP  RH WIND       PRES   REMARKS
ALBERTVILLE    CLEAR     37  30  75 S6        30.19S WCI  33
FORT PAYNE     CLEAR     34  25  69 CALM      30.19F
SCOTTSBORO AP  CLEAR     43  25  49 VRB6      30.19F
SCOTTSBORO HCN   N/A     36 N/A N/A MISG        N/A
VALLEY HEAD      N/A     34 N/A N/A MISG        N/A
$$

TNZ076-096-097-110100-
SOUTHEASTERN MIDDLE TENNESSEE

CITY           SKY/WX    TMP DP  RH WIND       PRES   REMARKS
TULLAHOMA      CLEAR     39  21  48 S7        30.13S WCI  34
WINCHESTER     CLEAR     37  21  52 S3        30.16S
$$

...SURROUNDING SITES...

CITY           SKY/WX    TMP DP  RH WIND       PRES   REMARKS
ATLANTA        CLEAR     36  26  67 W8        30.23R WCI  30
ANNISTON       CLEAR     34  29  82 CALM      30.25S
BIRMINGHAM     CLEAR     40  27  59 SW5       30.27S
CHATTANOOGA    PTCLDY    41  20  43 CALM      30.18F
CORINTH        FAIR      46  23  39 SW7       30.19R
DALTON         CLEAR     36  28  75 SE5       30.22F WCI  32
GADSDEN        CLEAR     35  28  75 SW3       30.24S
GOLDEN TRNGL   CLEAR     43  26  51 S6        30.25S
HALEYVILLE     FAIR      41  25  53 S9        30.21F
JACKSON TN     CLEAR     45  26  47 SW8       30.16R
MEMPHIS        CLEAR     48  30  49 S9        30.17S
NASHVILLE      CLEAR     44  20  38 S7        30.14R
ROME           CLEAR     35  28  75 CALM      30.21F
SAVANNAH       CLEAR     41  25  52 S7        30.17S
TUPELO         CLEAR     44  22  41 S5        30.22R
TUSCALOOSA     CLEAR     42  32  67 S3        30.27R
$$

...GULF COAST WEATHER...

CITY           SKY/WX    TMP DP  RH WIND       PRES   REMARKS
GULFPORT       CLEAR     45  40  82 CALM      30.33R
PASCAGOULA     CLEAR     39  36  89 CALM      30.33S
MOBILE         CLEAR     46  36  68 S3        30.33R
GULF SHORES    CLEAR     38  35  89 CALM      30.33S
PENSACOLA      CLEAR     45  32  60 W3        30.33R
DESTIN         CLEAR     51  30  44 CALM      30.33R
PANAMA CITY    CLEAR     41  37  83 CALM      30.32R
APPALACHICOLA  CLEAR     44  36  73 W3        30.32R
$$





USA.gov is the U.S. government's official web portal to all federal, state and local government web resources and services.